Weather History for Gulkana, AK

Change the Weather History Date:

Thursday, March 7, 2013

  Actual Average Record
Temperature  
Mean Temperature 14 °F -  
Max Temperature 32 °F 23 °F 43 °F (2008)
Min Temperature -5 °F 1 °F -39 °F (1971)
Degree Days  
Heating Degree Days 52    
Moisture  
Dew Point 5 °F    
Average Humidity 67    
Maximum Humidity 87    
Minimum Humidity 40    
Precipitation  
Precipitation 0.00 in - - ()
Snow  
Snow 0.00 in - - ()
Snow Depth 11.00 in    
Sea Level Pressure  
Sea Level Pressure 29.85 in    
Wind  
Wind Speed 5 mph (ESE)    
Max Wind Speed 16 mph    
Max Gust Speed -    
Visibility 10 miles    
Events      
Averages and records for this station are not official NWS values.
T = Trace of Precipitation, MM = Missing Value Source: NWS Daily Summary

Daily Weather History Graph

Daily Weather History Graph

Search for Another Location

Airport:

Trip Planner

Search our weather history database for the weather conditions in past years. The results will help you decide how hot, cold, wet, or windy it might be!

Date:

Astronomy

Mar. 07, 2013 Rise Set
Actual Time 7:23 AM AKST 6:22 PM AKST
Civil Twilight 6:39 AM AKST 7:07 PM AKST
Nautical Twilight 5:47 AM AKST 7:59 PM AKST
Astronomical Twilight 4:53 AM AKST 8:53 PM AKST
Moon 5:37 AM AKST (3/7) 1:18 PM AKST (3/7)
Length of Visible Light 12h 27m
Length of Day
10h 59m
Waning Crescent, 19% of the Moon is Illuminated
Mar 7
Waning Crescent
Mar 11
New
Mar 19
First Quarter
Mar 27
Full
Apr 2
Last Quarter

Hourly Weather History & Observations

Time (AKST) Temp. Windchill Dew Point Humidity Pressure Visibility Wind Dir Wind Speed Gust Speed Precip Events Conditions
12:53 AM -4.0 °F -16.3 °F -7.1 °F 87% 30.05 in 10.0 mi North 5.8 mph - N/A   Clear
1:53 AM -4.0 °F -14.6 °F -8.0 °F 83% 30.03 in 10.0 mi NNW 4.6 mph - N/A   Clear
3:53 AM -5.1 °F -17.6 °F -9.0 °F 83% 30.01 in 10.0 mi NNW 5.8 mph - N/A   Clear
4:53 AM 1.0 °F -10.3 °F -2.9 °F 83% 29.98 in 10.0 mi NNW 5.8 mph - N/A   Clear
5:53 AM 3.0 °F -6.4 °F -2.0 °F 80% 29.97 in 10.0 mi North 4.6 mph - N/A   Clear
6:08 AM 3.0 °F -6.4 °F -0.9 °F 84% 29.82 in 10.0 mi North 4.6 mph - N/A   Mostly Cloudy
6:53 AM 3.9 °F -5.3 °F -0.9 °F 80% 29.96 in 10.0 mi NNE 4.6 mph - N/A   Overcast
7:53 AM 3.9 °F -3.4 °F -0.9 °F 80% 29.96 in 10.0 mi North 3.5 mph - N/A   Overcast
8:53 AM 3.9 °F - -0.9 °F 80% 29.95 in 10.0 mi Calm Calm - N/A   Overcast
9:53 AM 5.0 °F - -0.9 °F 76% 29.94 in 10.0 mi Calm Calm - N/A   Overcast
10:53 AM 8.1 °F - 1.0 °F 73% 29.93 in 10.0 mi Calm Calm - N/A   Overcast
11:53 AM 12.9 °F - 3.9 °F 67% 29.91 in 10.0 mi Calm Calm - N/A   Overcast
12:53 PM 15.1 °F 9.4 °F 6.1 °F 68% 29.88 in 10.0 mi South 3.5 mph - N/A   Mostly Cloudy
1:53 PM 17.1 °F 11.7 °F 7.0 °F 65% 29.86 in 10.0 mi Variable 3.5 mph - N/A   Overcast
2:53 PM 19.9 °F 14.9 °F 9.0 °F 62% 29.81 in 10.0 mi NNE 3.5 mph - N/A   Overcast
3:53 PM 23.0 °F 13.9 °F 10.9 °F 60% 29.77 in 10.0 mi SSE 8.1 mph - N/A   Mostly Cloudy
4:53 PM 27.0 °F 14.7 °F 14.0 °F 58% 29.74 in 10.0 mi SSE 16.1 mph - N/A   Mostly Cloudy
5:53 PM 28.9 °F 20.4 °F 14.0 °F 54% 29.73 in 10.0 mi SSE 9.2 mph - N/A   Mostly Cloudy
6:53 PM 30.9 °F 19.8 °F 16.0 °F 54% 29.72 in 10.0 mi SSE 16.1 mph - N/A   Mostly Cloudy
7:53 PM 30.0 °F 19.5 °F 16.0 °F 56% 29.72 in 10.0 mi South 13.8 mph - N/A   Mostly Cloudy
8:53 PM 30.0 °F 24.1 °F 15.1 °F 54% 29.73 in 10.0 mi SSE 5.8 mph - N/A   Scattered Clouds
9:25 PM 26.1 °F 21.9 °F 14.0 °F 60% 29.60 in 10.0 mi Variable 3.5 mph - N/A   Scattered Clouds
9:53 PM 27.0 °F 18.7 °F 12.9 °F 56% 29.73 in 10.0 mi SE 8.1 mph - N/A   Clear
10:53 PM 28.0 °F 18.1 °F 12.9 °F 53% 29.74 in 10.0 mi South 11.5 mph - N/A   Clear
11:53 PM 30.0 °F 26.5 °F 14.0 °F 51% 29.74 in 10.0 mi SSW 3.5 mph - N/A   Mostly Cloudy